| time (UTC) | temp C | wind direction | speed KPH | gust KPH | rain 1hr cm | rain 24hr cm | rain mn cm | humidity % | barometer mb |
| 20260502181549 | 20 | 0 | 0.0 | 3.2 | 0.00 | 0.00 | 0.00 | 29 | 1018.1 |
| 20260502181038 | 21 | 0 | 0.0 | 4.8 | 0.00 | 0.00 | 0.00 | 29 | 1018.1 |
| 20260502180538 | 21 | 0 | 0.0 | 4.8 | 0.00 | 0.00 | 0.00 | 27 | 1018.1 |
| 20260502164042 | 23 | 78 | 3.2 | 9.7 | 0.00 | 0.00 | 0.00 | 21 | 1018.2 |
| 20260502163540 | 23 | 61 | 1.6 | 9.7 | 0.00 | 0.00 | 0.00 | 19 | 1018.2 |
| 20260502163056 | 23 | 88 | 4.8 | 9.7 | 0.00 | 0.00 | 0.00 | 19 | 1018.3 |
| 20260502162540 | 23 | 55 | 1.6 | 11.3 | 0.00 | 0.00 | 0.00 | 20 | 1018.4 |
| 20260502162040 | 24 | 67 | 3.2 | 12.9 | 0.00 | 0.00 | 0.00 | 21 | 1018.4 |
| 20260502161553 | 24 | 78 | 1.6 | 12.9 | 0.00 | 0.00 | 0.00 | 21 | 1018.5 |
| 20260502161040 | 24 | 72 | 3.2 | 12.9 | 0.00 | 0.00 | 0.00 | 23 | 1018.5 |
| 20260502160540 | 24 | 59 | 0.0 | 9.7 | 0.00 | 0.00 | 0.00 | 23 | 1018.5 |
| 20260502152041 | 25 | 0 | 3.2 | 9.7 | 0.00 | 0.00 | 0.00 | 25 | 1019.1 |
| 20260502151601 | 25 | 63 | 1.6 | 8.0 | 0.00 | 0.00 | 0.00 | 25 | 1019.1 |
| 20260502151042 | 25 | 38 | 3.2 | 8.0 | 0.00 | 0.00 | 0.00 | 26 | 1019.2 |
| 20260502150540 | 25 | 132 | 1.6 | 12.9 | 0.00 | 0.00 | 0.00 | 24 | 1019.2 |
| 20260502130541 | 25 | 103 | 3.2 | 17.7 | 0.00 | 0.00 | 0.00 | 20 | 1020.7 |
| 20260502123540 | 25 | 95 | 1.6 | 12.9 | 0.00 | 0.00 | 0.00 | 21 | 1021.2 |
| 20260502123050 | 24 | 107 | 1.6 | 19.3 | 0.00 | 0.00 | 0.00 | 24 | 1021.2 |
| 20260502122540 | 24 | 87 | 3.2 | 19.3 | 0.00 | 0.00 | 0.00 | 26 | 1021.4 |
| 20260502122040 | 24 | 88 | 4.8 | 17.7 | 0.00 | 0.00 | 0.00 | 22 | 1021.4 |
| 20260502121554 | 24 | 69 | 4.8 | 17.7 | 0.00 | 0.00 | 0.00 | 23 | 1021.5 |
| 20260502121039 | 23 | 63 | 3.2 | 17.7 | 0.00 | 0.00 | 0.00 | 23 | 1021.6 |
| 20260502120541 | 23 | 108 | 1.6 | 16.1 | 0.00 | 0.00 | 0.00 | 27 | 1021.6 |
| 20260502120104 | 23 | 73 | 3.2 | 16.1 | 0.00 | 0.00 | 0.00 | 26 | 1021.6 |
| 20260502115541 | 23 | 102 | 6.4 | 16.1 | 0.00 | 0.00 | 0.00 | 28 | 1021.7 |
| 20260502115042 | 23 | 89 | 3.2 | 16.1 | 0.00 | 0.00 | 0.00 | 30 | 1021.7 |
| 20260502114555 | 23 | 61 | 4.8 | 12.9 | 0.00 | 0.00 | 0.00 | 28 | 1021.8 |
| 20260502114040 | 23 | 115 | 1.6 | 16.1 | 0.00 | 0.00 | 0.00 | 29 | 1021.8 |
| 20260502113540 | 23 | 36 | 4.8 | 16.1 | 0.00 | 0.00 | 0.00 | 31 | 1021.9 |
| 20260502113049 | 23 | 72 | 4.8 | 16.1 | 0.00 | 0.00 | 0.00 | 29 | 1021.9 |
| 20260502112539 | 23 | 144 | 3.2 | 16.1 | 0.00 | 0.00 | 0.00 | 31 | 1022.1 |
| 20260502112040 | 23 | 88 | 1.6 | 16.1 | 0.00 | 0.00 | 0.00 | 33 | 1022.0 |
| 20260502111558 | 23 | 128 | 1.6 | 19.3 | 0.00 | 0.00 | 0.00 | 34 | 1022.2 |
| 20260502111039 | 22 | 71 | 4.8 | 19.3 | 0.00 | 0.00 | 0.00 | 33 | 1022.3 |
| 20260502110540 | 22 | 65 | 0.0 | 12.9 | 0.00 | 0.00 | 0.00 | 36 | 1022.2 |
| 20260502110050 | 22 | 144 | 4.8 | 12.9 | 0.00 | 0.00 | 0.00 | 35 | 1022.3 |
| 20260502105541 | 22 | 101 | 1.6 | 16.1 | 0.00 | 0.00 | 0.00 | 33 | 1022.3 |
| 20260502105041 | 22 | 62 | 4.8 | 16.1 | 0.00 | 0.00 | 0.00 | 35 | 1022.4 |
| 20260502104553 | 22 | 67 | 1.6 | 14.5 | 0.00 | 0.00 | 0.00 | 35 | 1022.4 |
| 20260502104040 | 22 | 57 | 3.2 | 14.5 | 0.00 | 0.00 | 0.00 | 35 | 1022.6 |
| 20260502103548 | 22 | 88 | 3.2 | 12.9 | 0.00 | 0.00 | 0.00 | 37 | 1022.7 |
| 20260502103048 | 22 | 130 | 3.2 | 14.5 | 0.00 | 0.00 | 0.00 | 36 | 1022.8 |
| 20260502102538 | 22 | 321 | 1.6 | 14.5 | 0.00 | 0.00 | 0.00 | 37 | 1022.8 |
| 20260502102037 | 22 | 86 | 4.8 | 17.7 | 0.00 | 0.00 | 0.00 | 37 | 1022.9 |
| 20260502101548 | 22 | 105 | 3.2 | 17.7 | 0.00 | 0.00 | 0.00 | 41 | 1022.9 |
| 20260502101038 | 22 | 76 | 3.2 | 8.0 | 0.00 | 0.00 | 0.00 | 38 | 1023.1 |
| 20260502100536 | 21 | 81 | 1.6 | 6.4 | 0.00 | 0.00 | 0.00 | 40 | 1023.2 |
| 20260502091036 | 20 | 64 | 3.2 | 14.5 | 0.00 | 0.00 | 0.00 | 41 | 1024.0 |
| 20260502090536 | 20 | 44 | 1.6 | 16.1 | 0.00 | 0.00 | 0.00 | 46 | 1023.9 |
| 20260502071040 | 14 | 121 | 1.6 | 4.8 | 0.00 | 0.00 | 0.00 | 65 | 1024.9 |
| 20260502070541 | 14 | 94 | 1.6 | 4.8 | 0.00 | 0.00 | 0.00 | 65 | 1025.0 |
| 20260502070051 | 13 | 0 | 0.0 | 4.8 | 0.00 | 0.00 | 0.00 | 66 | 1025.0 |
| 20260502065540 | 13 | 71 | 1.6 | 4.8 | 0.00 | 0.00 | 0.00 | 65 | 1025.0 |
| 20260502065039 | 13 | 5 | 1.6 | 3.2 | 0.00 | 0.00 | 0.00 | 67 | 1025.1 |
| 20260502064603 | 13 | 70 | 0.0 | 3.2 | 0.00 | 0.00 | 0.00 | 66 | 1025.1 |
| 20260502064039 | 13 | 77 | 1.6 | 3.2 | 0.00 | 0.00 | 0.00 | 67 | 1025.2 |
| 20260502063539 | 12 | 0 | 0.0 | 3.2 | 0.00 | 0.00 | 0.00 | 67 | 1025.2 |
| 20260502063047 | 12 | 0 | 0.0 | 3.2 | 0.00 | 0.00 | 0.00 | 67 | 1025.2 |
| 20260502062544 | 12 | 77 | 0.0 | 3.2 | 0.00 | 0.00 | 0.00 | 68 | 1025.2 |
| 20260502062039 | 12 | 77 | 0.0 | 3.2 | 0.00 | 0.00 | 0.00 | 68 | 1025.3 |
| 20260502061548 | 11 | 77 | 0.0 | 3.2 | 0.00 | 0.00 | 0.00 | 69 | 1025.3 |
| 20260502061043 | 11 | 0 | 0.0 | 4.8 | 0.00 | 0.00 | 0.00 | 70 | 1025.4 |
| 20260502060540 | 11 | 0 | 0.0 | 4.8 | 0.00 | 0.00 | 0.00 | 71 | 1025.4 |
| 20260502060046 | 11 | 67 | 1.6 | 4.8 | 0.00 | 0.00 | 0.00 | 71 | 1025.3 |
| 20260502055543 | 10 | 0 | 0.0 | 1.6 | 0.00 | 0.00 | 0.00 | 73 | 1025.4 |
| 20260502055041 | 10 | 0 | 0.0 | 1.6 | 0.00 | 0.00 | 0.00 | 75 | 1025.5 |
| 20260502054548 | 9 | 0 | 0.0 | 0.0 | 0.00 | 0.00 | 0.00 | 76 | 1025.5 |
| 20260502054044 | 9 | 0 | 0.0 | 0.0 | 0.00 | 0.00 | 0.00 | 75 | 1025.6 |
| 20260502053540 | 8 | 0 | 0.0 | 0.0 | 0.00 | 0.00 | 0.00 | 76 | 1025.6 |
| 20260502053047 | 8 | 0 | 0.0 | 0.0 | 0.00 | 0.00 | 0.00 | 77 | 1025.5 |
| 20260502052540 | 8 | 0 | 0.0 | 0.0 | 0.00 | 0.00 | 0.00 | 78 | 1025.6 |
| 20260502052038 | 8 | 0 | 0.0 | 0.0 | 0.00 | 0.00 | 0.00 | 79 | 1025.6 |
| 20260502051617 | 8 | 0 | 0.0 | 1.6 | 0.00 | 0.00 | 0.00 | 82 | 1025.6 |
| 20260502051040 | 7 | 0 | 0.0 | 1.6 | 0.00 | 0.00 | 0.00 | 83 | 1025.5 |
| 20260502050540 | 7 | 313 | 0.0 | 1.6 | 0.00 | 0.00 | 0.00 | 85 | 1025.5 |
| 20260502050047 | 7 | 0 | 0.0 | 1.6 | 0.00 | 0.00 | 0.00 | 86 | 1025.4 |
| 20260502045539 | 7 | 0 | 0.0 | 1.6 | 0.00 | 0.00 | 0.00 | 86 | 1025.4 |
| 20260502045040 | 7 | 0 | 0.0 | 1.6 | 0.00 | 0.00 | 0.00 | 87 | 1025.3 |
| 20260502044554 | 6 | 0 | 0.0 | 1.6 | 0.00 | 0.00 | 0.00 | 87 | 1025.4 |
| 20260502044039 | 6 | 0 | 0.0 | 0.0 | 0.00 | 0.00 | 0.00 | 87 | 1025.3 |
| 20260502043539 | 6 | 0 | 0.0 | 0.0 | 0.00 | 0.00 | 0.00 | 87 | 1025.3 |
| 20260502043053 | 6 | 0 | 0.0 | 0.0 | 0.00 | 0.00 | 0.00 | 86 | 1025.2 |
| 20260502042539 | 6 | 0 | 0.0 | 0.0 | 0.00 | 0.00 | 0.00 | 86 | 1025.3 |
| 20260502042039 | 6 | 0 | 0.0 | 0.0 | 0.00 | 0.00 | 0.00 | 86 | 1025.4 |
| 20260502041549 | 6 | 0 | 0.0 | 0.0 | 0.00 | 0.00 | 0.00 | 86 | 1025.4 |
| 20260502041039 | 6 | 0 | 0.0 | 0.0 | 0.00 | 0.00 | 0.00 | 85 | 1025.3 |
| 20260502040540 | 6 | 0 | 0.0 | 0.0 | 0.00 | 0.00 | 0.00 | 85 | 1025.3 |
| 20260502040050 | 6 | 0 | 0.0 | 0.0 | 0.00 | 0.00 | 0.00 | 85 | 1025.3 |
| 20260502035543 | 6 | 0 | 0.0 | 0.0 | 0.00 | 0.00 | 0.00 | 85 | 1025.3 |
| 20260502035040 | 6 | 0 | 0.0 | 0.0 | 0.00 | 0.00 | 0.00 | 85 | 1025.3 |
| 20260502034547 | 6 | 0 | 0.0 | 0.0 | 0.00 | 0.00 | 0.00 | 84 | 1025.2 |
| 20260502034041 | 6 | 0 | 0.0 | 0.0 | 0.00 | 0.00 | 0.00 | 85 | 1025.2 |
| 20260502033540 | 6 | 0 | 0.0 | 0.0 | 0.00 | 0.00 | 0.00 | 85 | 1025.1 |
| 20260502033056 | 6 | 0 | 0.0 | 0.0 | 0.00 | 0.00 | 0.00 | 85 | 1025.1 |
| 20260502032539 | 6 | 0 | 0.0 | 0.0 | 0.00 | 0.00 | 0.00 | 84 | 1025.2 |
| 20260502032039 | 6 | 0 | 0.0 | 0.0 | 0.00 | 0.00 | 0.00 | 84 | 1025.2 |
| 20260502031608 | 6 | 0 | 0.0 | 0.0 | 0.00 | 0.00 | 0.00 | 83 | 1025.2 |
| 20260502031040 | 6 | 0 | 0.0 | 0.0 | 0.00 | 0.00 | 0.00 | 83 | 1025.3 |
| 20260502030541 | 6 | 0 | 0.0 | 0.0 | 0.00 | 0.00 | 0.00 | 83 | 1025.3 |
| 20260502030050 | 6 | 0 | 0.0 | 0.0 | 0.00 | 0.00 | 0.00 | 83 | 1025.3 |
| 20260502025539 | 6 | 0 | 0.0 | 0.0 | 0.00 | 0.00 | 0.00 | 83 | 1025.4 |
| 20260502025040 | 6 | 0 | 0.0 | 0.0 | 0.00 | 0.00 | 0.00 | 82 | 1025.5 |
| 20260502024553 | 6 | 0 | 0.0 | 0.0 | 0.00 | 0.00 | 0.00 | 83 | 1025.5 |
| 20260502024040 | 6 | 0 | 0.0 | 0.0 | 0.00 | 0.00 | 0.00 | 83 | 1025.4 |
| 20260502023540 | 6 | 0 | 0.0 | 0.0 | 0.00 | 0.00 | 0.00 | 83 | 1025.3 |
| 20260502023050 | 6 | 0 | 0.0 | 0.0 | 0.00 | 0.00 | 0.00 | 83 | 1025.3 |
| 20260502022540 | 6 | 0 | 0.0 | 0.0 | 0.00 | 0.00 | 0.00 | 82 | 1025.3 |
| 20260502022039 | 7 | 0 | 0.0 | 0.0 | 0.00 | 0.00 | 0.00 | 82 | 1025.3 |
| 20260502021556 | 7 | 0 | 0.0 | 0.0 | 0.00 | 0.00 | 0.00 | 82 | 1025.4 |
| 20260502021039 | 7 | 0 | 0.0 | 0.0 | 0.00 | 0.00 | 0.00 | 82 | 1025.3 |
| 20260502020543 | 7 | 0 | 0.0 | 0.0 | 0.00 | 0.00 | 0.00 | 82 | 1025.4 |
| 20260502015539 | 7 | 0 | 0.0 | 0.0 | 0.00 | 0.00 | 0.00 | 81 | 1025.5 |
| 20260502015041 | 7 | 0 | 0.0 | 0.0 | 0.00 | 0.00 | 0.00 | 81 | 1025.5 |
| 20260502014546 | 7 | 0 | 0.0 | 0.0 | 0.00 | 0.00 | 0.00 | 81 | 1025.5 |
| 20260502014039 | 7 | 0 | 0.0 | 0.0 | 0.00 | 0.00 | 0.00 | 81 | 1025.5 |
| 20260502013542 | 7 | 0 | 0.0 | 0.0 | 0.00 | 0.00 | 0.00 | 81 | 1025.6 |
| 20260502013049 | 7 | 0 | 0.0 | 0.0 | 0.00 | 0.00 | 0.00 | 81 | 1025.5 |
| 20260502012543 | 7 | 0 | 0.0 | 0.0 | 0.00 | 0.00 | 0.00 | 81 | 1025.6 |
| 20260502012040 | 7 | 0 | 0.0 | 0.0 | 0.00 | 0.00 | 0.00 | 81 | 1025.6 |
| 20260502011551 | 7 | 0 | 0.0 | 0.0 | 0.00 | 0.00 | 0.00 | 80 | 1025.6 |
| 20260502011036 | 7 | 0 | 0.0 | 0.0 | 0.00 | 0.00 | 0.00 | 80 | 1025.7 |
| 20260502010537 | 8 | 0 | 0.0 | 0.0 | 0.00 | 0.00 | 0.00 | 79 | 1025.8 |
| 20260502010055 | 8 | 0 | 0.0 | 0.0 | 0.00 | 0.00 | 0.00 | 79 | 1025.8 |
| 20260502005536 | 8 | 0 | 0.0 | 0.0 | 0.00 | 0.00 | 0.00 | 79 | 1025.8 |
| 20260502005037 | 8 | 0 | 0.0 | 0.0 | 0.00 | 0.00 | 0.00 | 80 | 1025.8 |
| 20260502004547 | 8 | 0 | 0.0 | 0.0 | 0.00 | 0.00 | 0.00 | 80 | 1025.8 |
| 20260502004040 | 8 | 0 | 0.0 | 0.0 | 0.00 | 0.00 | 0.00 | 79 | 1025.8 |
| 20260502003535 | 8 | 0 | 0.0 | 0.0 | 0.00 | 0.00 | 0.00 | 79 | 1025.9 |
| 20260502003050 | 8 | 0 | 0.0 | 0.0 | 0.00 | 0.00 | 0.00 | 78 | 1025.8 |
| 20260502002535 | 8 | 0 | 0.0 | 0.0 | 0.00 | 0.00 | 0.00 | 78 | 1025.9 |
| 20260502002040 | 8 | 0 | 0.0 | 0.0 | 0.00 | 0.00 | 0.00 | 77 | 1025.9 |
| 20260502001549 | 8 | 0 | 0.0 | 0.0 | 0.00 | 0.00 | 0.00 | 77 | 1025.9 |
| 20260502001037 | 8 | 0 | 0.0 | 0.0 | 0.00 | 0.00 | 0.00 | 76 | 1025.9 |
| 20260502000536 | 8 | 0 | 0.0 | 0.0 | 0.00 | 0.00 | 0.00 | 76 | 1026.0 |
| 20260502000053 | 8 | 0 | 0.0 | 0.0 | 0.00 | 0.00 | 0.00 | 76 | 1026.1 |
| 20260501235541 | 8 | 0 | 0.0 | 0.0 | 0.00 | 0.00 | 0.00 | 75 | 1026.1 |
| 20260501235036 | 8 | 0 | 0.0 | 0.0 | 0.00 | 0.00 | 0.00 | 74 | 1026.1 |
| 20260501234555 | 8 | 0 | 0.0 | 0.0 | 0.00 | 0.00 | 0.00 | 74 | 1026.1 |
| 20260501234036 | 8 | 0 | 0.0 | 0.0 | 0.00 | 0.00 | 0.00 | 74 | 1026.2 |
| 20260501233536 | 8 | 0 | 0.0 | 0.0 | 0.00 | 0.00 | 0.00 | 73 | 1026.2 |
| 20260501233054 | 9 | 0 | 0.0 | 0.0 | 0.00 | 0.00 | 0.00 | 73 | 1026.2 |
| 20260501232536 | 9 | 0 | 0.0 | 0.0 | 0.00 | 0.00 | 0.00 | 71 | 1026.2 |
| 20260501232040 | 9 | 0 | 0.0 | 0.0 | 0.00 | 0.00 | 0.00 | 71 | 1026.1 |
| 20260501231555 | 9 | 0 | 0.0 | 0.0 | 0.00 | 0.00 | 0.00 | 71 | 1026.3 |
| 20260501231038 | 9 | 0 | 0.0 | 0.0 | 0.00 | 0.00 | 0.00 | 71 | 1026.2 |
| 20260501230536 | 9 | 0 | 0.0 | 0.0 | 0.00 | 0.00 | 0.00 | 71 | 1026.3 |
| 20260501230054 | 9 | 0 | 0.0 | 0.0 | 0.00 | 0.00 | 0.00 | 70 | 1026.3 |
| 20260501225539 | 9 | 0 | 0.0 | 0.0 | 0.00 | 0.00 | 0.00 | 69 | 1026.3 |
| 20260501225037 | 10 | 0 | 0.0 | 0.0 | 0.00 | 0.00 | 0.00 | 68 | 1026.3 |
| 20260501224554 | 10 | 0 | 0.0 | 0.0 | 0.00 | 0.00 | 0.00 | 68 | 1026.3 |
| 20260501224036 | 10 | 0 | 0.0 | 0.0 | 0.00 | 0.00 | 0.00 | 67 | 1026.3 |
| 20260501223537 | 10 | 0 | 0.0 | 0.0 | 0.00 | 0.00 | 0.00 | 67 | 1026.3 |
| 20260501223047 | 10 | 0 | 0.0 | 0.0 | 0.00 | 0.00 | 0.00 | 67 | 1026.3 |
| 20260501222536 | 10 | 0 | 0.0 | 0.0 | 0.00 | 0.00 | 0.00 | 66 | 1026.4 |
| 20260501222036 | 10 | 0 | 0.0 | 0.0 | 0.00 | 0.00 | 0.00 | 66 | 1026.3 |
| 20260501221550 | 10 | 0 | 0.0 | 0.0 | 0.00 | 0.00 | 0.00 | 66 | 1026.3 |
| 20260501221057 | 10 | 0 | 0.0 | 0.0 | 0.00 | 0.00 | 0.00 | 66 | 1026.3 |
| 20260501220540 | 10 | 0 | 0.0 | 0.0 | 0.00 | 0.00 | 0.00 | 65 | 1026.4 |
| 20260501220055 | 10 | 0 | 0.0 | 0.0 | 0.00 | 0.00 | 0.00 | 64 | 1026.3 |
| 20260501215541 | 11 | 0 | 0.0 | 0.0 | 0.00 | 0.00 | 0.00 | 64 | 1026.3 |
| 20260501215040 | 11 | 0 | 0.0 | 1.6 | 0.00 | 0.00 | 0.00 | 64 | 1026.3 |
| 20260501214602 | 11 | 0 | 0.0 | 1.6 | 0.00 | 0.00 | 0.00 | 64 | 1026.2 |
| 20260501214040 | 11 | 0 | 0.0 | 0.0 | 0.00 | 0.00 | 0.00 | 63 | 1026.3 |
| 20260501213539 | 11 | 0 | 0.0 | 0.0 | 0.00 | 0.00 | 0.00 | 63 | 1026.2 |
| 20260501213100 | 11 | 0 | 0.0 | 1.6 | 0.00 | 0.00 | 0.00 | 62 | 1026.3 |
| 20260501212539 | 11 | 0 | 0.0 | 1.6 | 0.00 | 0.00 | 0.00 | 62 | 1026.2 |
| 20260501212039 | 11 | 0 | 0.0 | 4.8 | 0.00 | 0.00 | 0.00 | 61 | 1026.2 |
| 20260501211552 | 11 | 0 | 0.0 | 4.8 | 0.00 | 0.00 | 0.00 | 61 | 1026.1 |
| 20260501211040 | 11 | 305 | 0.0 | 4.8 | 0.00 | 0.00 | 0.00 | 61 | 1026.2 |
| 20260501210540 | 12 | 0 | 0.0 | 3.2 | 0.00 | 0.00 | 0.00 | 61 | 1026.2 |
| 20260501210051 | 12 | 302 | 0.0 | 3.2 | 0.00 | 0.00 | 0.00 | 60 | 1026.2 |
| 20260501205540 | 12 | 0 | 0.0 | 3.2 | 0.00 | 0.00 | 0.00 | 59 | 1026.2 |
| 20260501205040 | 12 | 0 | 0.0 | 3.2 | 0.00 | 0.00 | 0.00 | 59 | 1026.3 |
| 20260501204553 | 12 | 302 | 0.0 | 1.6 | 0.00 | 0.00 | 0.00 | 59 | 1026.3 |
| 20260501204040 | 12 | 0 | 0.0 | 1.6 | 0.00 | 0.00 | 0.00 | 58 | 1026.3 |
| 20260501203539 | 12 | 0 | 0.0 | 1.6 | 0.00 | 0.00 | 0.00 | 58 | 1026.2 |
| 20260501203058 | 12 | 0 | 0.0 | 3.2 | 0.00 | 0.00 | 0.00 | 58 | 1026.3 |
| 20260501202539 | 12 | 0 | 0.0 | 4.8 | 0.00 | 0.00 | 0.00 | 58 | 1026.3 |
| 20260501202040 | 12 | 0 | 0.0 | 6.4 | 0.00 | 0.00 | 0.00 | 58 | 1026.3 |
| 20260501201555 | 12 | 0 | 1.6 | 6.4 | 0.00 | 0.00 | 0.00 | 58 | 1026.3 |
| 20260501201040 | 13 | 0 | 0.0 | 4.8 | 0.00 | 0.00 | 0.00 | 58 | 1026.2 |
| 20260501200540 | 13 | 320 | 0.0 | 4.8 | 0.00 | 0.00 | 0.00 | 58 | 1026.2 |
| 20260501200048 | 13 | 295 | 0.0 | 3.2 | 0.00 | 0.00 | 0.00 | 57 | 1026.3 |
| 20260501195538 | 13 | 0 | 0.0 | 4.8 | 0.00 | 0.00 | 0.00 | 57 | 1026.2 |
| 20260501195038 | 13 | 309 | 0.0 | 4.8 | 0.00 | 0.00 | 0.00 | 57 | 1026.1 |
| 20260501194558 | 13 | 0 | 0.0 | 4.8 | 0.00 | 0.00 | 0.00 | 56 | 1026.2 |
| 20260501194038 | 13 | 0 | 0.0 | 3.2 | 0.00 | 0.00 | 0.00 | 56 | 1026.2 |
| 20260501193540 | 13 | 273 | 0.0 | 3.2 | 0.00 | 0.00 | 0.00 | 56 | 1026.3 |
| 20260501193055 | 13 | 0 | 0.0 | 4.8 | 0.00 | 0.00 | 0.00 | 56 | 1026.1 |
| 20260501192541 | 14 | 0 | 0.0 | 4.8 | 0.00 | 0.00 | 0.00 | 55 | 1026.0 |
| 20260501192040 | 14 | 310 | 0.0 | 4.8 | 0.00 | 0.00 | 0.00 | 55 | 1026.1 |
| 20260501191554 | 14 | 304 | 0.0 | 3.2 | 0.00 | 0.00 | 0.00 | 55 | 1026.2 |
| 20260501191041 | 15 | 0 | 0.0 | 3.2 | 0.00 | 0.00 | 0.00 | 54 | 1026.1 |
| 20260501190541 | 15 | 323 | 0.0 | 1.6 | 0.00 | 0.00 | 0.00 | 53 | 1026.1 |
| 20260501190114 | 15 | 0 | 0.0 | 0.0 | 0.00 | 0.00 | 0.00 | 52 | 1026.1 |
| 20260501185538 | 15 | 0 | 0.0 | 1.6 | 0.00 | 0.00 | 0.00 | 52 | 1026.0 |
| 20260501185038 | 15 | 0 | 0.0 | 4.8 | 0.00 | 0.00 | 0.00 | 51 | 1026.0 |
| 20260501184550 | 15 | 0 | 0.0 | 4.8 | 0.00 | 0.00 | 0.00 | 50 | 1026.0 |
| 20260501184038 | 16 | 308 | 0.0 | 3.2 | 0.00 | 0.00 | 0.00 | 49 | 1025.9 |
| 20260501183542 | 16 | 0 | 0.0 | 0.0 | 0.00 | 0.00 | 0.00 | 49 | 1025.9 |
| 20260501183051 | 16 | 0 | 0.0 | 1.6 | 0.00 | 0.00 | 0.00 | 48 | 1025.8 |
| 20260501182538 | 16 | 0 | 0.0 | 1.6 | 0.00 | 0.00 | 0.00 | 46 | 1025.8 |
| 20260501182040 | 17 | 0 | 0.0 | 1.6 | 0.00 | 0.00 | 0.00 | 45 | 1025.7 |